Temperature
17 17 17 17 17 17 17 17 17 17 17 17 17 17 17 17 17 18 17 18 17 17 17 17 17 17 17 17 17 17 17 17 17 17 16 16 16 16 16 16 16 16 16
17 17 17 17 17 17 17 17 17 17 17 17 17 17 17 17 17 17 17 17 18 17 17 17 17 17 17 17 17 17 17 17 16 17 16 16 16 16 16 16 16 16 16
17 17 17 17 17 17 17 17 17 17 17 17 17 17 17 17 17 17 17 17 17 17 17 17 17 17 17 17 17 17 17 17 16 16 16 16 16 16 16 16 16 16 16
17 17 17 17 17 17 17 17 17 17 17 17 17 17 17 17 17 17 17 17 17 17 17 17 17 17 17 17 17 17 17 17 16 16 16 16 16 16 16 16 16 16 16
17 17 17 17 17 17 17 17 17 17 17 17 17 17 18 17 17 17 17 17 17 17 17 17 17 17 17 17 17 17 17 16 16 16 16 16 16 16 16 16 16 16 16
17 17 17 17 17 17 17 17 17 17 17 17 18 18 18 18 18 18 17 17 17 17 17 17 17 17 17 17 17 17 17 16 16 16 16 16 16 16 16 16 16 16 16
17 18 18 17 17 17 17 17 17 17 17 17 17 18 18 18 18 18 18 18 18 17 17 17 17 17 17 17 17 17 17 17 16 16 16 16 16 16 16 16 16 16 16
18 18 18 18 17 18 17 17 17 17 17 17 17 18 18 18 18 18 18 17 17 17 17 17 17 17 17 17 17 17 17 17 16 16 16 16 16 16 16 16 16 16 16
18 18 18 18 18 17 18 18 17 17 17 17 17 18 18 19 19 18 18 17 17 17 17 17 17 17 17 17 16 17 17 17 16 16 16 16 16 16 16 16 16 16 16
18 18 18 18 18 18 18 18 18 17 17 17 17 17 17 18 18 18 18 18 17 17 17 17 17 17 17 16 16 16 16 16 16 16 16 16 16 16 16 16 16 16 16
18 18 18 18 18 18 18 18 18 17 17 17 17 17 17 17 17 18 18 18 17 17 17 17 17 17 16 16 16 16 16 16 16 16 16 16 16 16 16 15 15 15 15
18 18 18 18 18 18 18 18 18 17 17 17 17 17 17 17 17 17 18 17 17 17 17 17 16 16 16 16 16 16 16 16 16 16 16 16 16 15 15 15 15 15 15
18 18 18 18 18 18 18 18 18 17 17 17 17 17 17 17 17 17 17 17 17 17 17 16 16 16 16 16 16 16 16 16 16 16 16 16 16 15 15 15 15 15 15
18 18 18 18 18 18 18 18 17 17 17 17 17 17 17 17 17 17 17 17 17 17 17 16 16 16 16 15 16 16 15 16 16 16 15 15 15 15 15 15 15 15 15
18 18 18 18 18 18 18 18 17 17 17 17 17 17 17 17 17 17 16 16 16 17 17 16 16 16 15 15 15 15 15 15 15 15 15 15 15 15 15 15 15 15 14
19 18 18 18 18 18 18 18 17 17 17 17 17 17 17 17 17 16 16 16 16 16 16 16 16 15 15 15 15 15 15 15 15 15 15 15 15 14 14 14 14 14 14
19 19 18 18 18 18 18 18 17 17 17 17 17 16 17 17 16 16 16 16 16 16 16 16 15 15 15 15 14 14 14 14 14 14 14 14 14 14 14 14 14 14 14
19 19 18 18 18 17 17 17 17 17 17 17 17 16 16 16 16 16 16 16 16 16 15 15 15 15 14 14 14 14 14 14 14 14 14 14 14 14 14 14 13 13 13
19 18 18 18 18 18 17 17 17 17 17 17 16 16 16 16 16 16 16 16 15 15 15 15 15 14 14 14 14 14 13 13 13 13 13 13 13 13 13 13 13 13 13
19 18 18 18 18 18 17 17 17 17 17 17 17 16 16 16 16 16 16 16 15 15 15 15 14 14 14 14 13 13 13 13 13 13 13 13 13 13 13 13 13 12 12
19 19 18 18 18 18 17 17 17 17 17 16 16 16 16 16 16 16 15 15 15 15 15 15 14 14 14 13 13 13 13 13 12 12 12 12 12 12 12 12 12 12 12
19 18 18 18 18 17 17 17 17 16 16 16 16 16 16 16 16 16 16 16 15 15 14 14 14 14 14 13 13 13 13 12 12 12 12 12 12 11 11 11 12 11 11
19 18 18 17 17 17 17 17 17 16 16 16 16 16 15 15 15 15 15 15 15 15 15 14 14 13 13 13 13 13 12 12 12 12 12 12 11 11 11 11 11 11 11
18 18 18 17 17 17 17 17 17 16 16 16 15 15 15 15 15 15 14 14 14 14 14 14 13 13 13 13 13 12 12 12 12 12 11 11 11 11 11 11 11 11 11
18 17 17 17 17 16 17 17 16 16 15 15 15 15 15 15 15 15 14 14 14 14 14 13 13 13 13 13 13 12 12 12 12 11 11 11 11 11 10 10 10 10 10
17 17 17 16 16 16 16 16 16 15 15 15 15 15 15 15 15 15 14 13 13 13 13 13 13 13 13 12 12 12 11 11 12 11 11 11 11 10 10 10 10 10 10
Wind_Speed
3 4 3 2 3 4 5 4 4 4 4 4 3 3 2 2 2 2 5 9 8 8 9 9 9 10 10 11 11 11 11 11 11 11 11 10 10 10 9 9 9 9 9
3 3 4 3 3 3 3 3 3 3 3 2 3 3 3 3 3 3 3 8 10 9 9 10 10 10 11 11 11 11 11 11 11 12 12 12 11 11 11 11 10 10 10
3 3 2 3 3 3 4 3 3 3 3 3 3 3 3 3 3 3 4 4 7 11 10 10 10 10 11 11 12 12 12 12 12 12 12 12 12 12 12 12 11 11 11
3 3 3 3 3 3 3 3 3 3 2 2 2 3 2 2 3 4 5 5 5 6 10 11 9 9 10 11 12 12 12 12 13 13 14 14 13 13 13 13 13 13 13
4 4 3 2 4 3 3 3 3 3 3 2 3 3 3 3 3 4 4 4 4 5 5 10 11 9 10 10 11 12 13 13 13 13 14 14 14 14 14 14 14 14 13
5 4 4 4 4 3 3 2 2 3 3 3 4 2 2 3 4 4 4 4 4 6 6 6 8 10 11 10 10 11 12 13 14 14 15 15 15 15 15 15 15 14 14
5 5 3 4 4 4 4 4 4 4 4 3 3 3 3 4 4 4 4 3 4 5 5 6 7 6 8 12 12 11 11 12 13 13 14 14 14 15 15 16 16 16 15
6 6 5 5 5 4 5 5 5 4 4 4 4 3 3 4 4 4 4 5 4 4 5 7 6 6 6 6 8 11 11 10 11 12 12 13 14 14 14 15 16 16 16
6 6 5 5 5 6 5 6 6 7 5 4 5 4 4 3 1 3 4 4 4 4 5 5 6 7 7 6 5 9 10 9 10 10 11 12 13 14 14 14 15 16 16
5 5 6 5 5 5 5 7 7 6 6 5 4 5 5 4 3 3 4 4 4 5 5 5 5 6 6 6 5 5 7 8 9 9 10 11 12 12 13 14 14 15 15
5 5 5 5 5 5 5 6 5 6 6 6 5 5 5 4 7 5 5 4 4 4 4 5 4 4 5 5 5 4 5 6 7 7 8 9 9 10 11 11 12 12 13
4 5 5 5 5 5 5 5 5 6 6 6 6 5 5 4 5 5 6 5 5 4 4 3 4 4 4 4 3 4 4 4 5 6 6 6 6 7 8 9 9 10 11
4 5 5 5 4 4 5 5 5 5 6 6 6 5 5 5 5 5 6 5 5 4 3 4 3 3 3 3 2 5 4 4 4 4 4 4 4 5 5 6 8 7 7
4 4 5 5 5 5 5 5 5 5 5 6 6 6 5 6 5 5 5 5 5 5 4 3 2 2 2 1 2 3 3 5 4 2 2 2 3 3 3 3 4 4 4
5 5 5 5 5 5 5 5 4 5 5 6 6 6 6 5 5 5 5 5 5 5 4 3 2 1 1 1 2 1 2 6 5 4 3 2 2 2 3 3 3 3 3
5 5 6 6 6 5 5 5 5 4 5 5 4 5 5 5 4 4 5 5 5 5 4 2 1 1 1 1 3 2 3 7 6 4 3 3 3 3 3 3 3 3 3
7 7 7 6 6 5 5 5 5 5 5 5 5 4 4 4 4 4 4 4 4 4 4 2 0 1 1 1 2 2 2 2 4 5 4 4 4 4 4 4 4 4 4
7 7 7 6 6 5 5 5 5 5 5 5 5 4 4 3 3 3 3 3 3 3 3 2 1 1 1 1 2 1 1 1 3 7 6 5 5 4 5 5 5 5 4
7 7 6 6 6 5 5 5 5 5 5 4 4 4 4 4 3 3 3 3 3 3 2 3 2 1 1 2 2 1 1 1 2 5 6 6 5 5 5 5 5 5 5
7 7 7 6 6 6 6 6 6 5 5 4 3 4 4 4 4 4 4 4 3 3 3 3 2 2 2 2 2 2 2 2 1 2 3 3 5 6 5 5 5 5 5
8 7 7 7 7 6 6 6 6 6 6 5 4 4 4 2 2 3 3 3 3 3 3 3 3 3 3 3 3 3 3 3 2 2 2 3 4 3 5 6 6 5 6
7 7 7 7 7 6 4 5 6 6 6 6 5 4 4 4 4 3 2 2 2 4 4 3 3 3 4 3 3 3 3 3 2 3 2 2 2 2 2 2 6 7 6
6 6 6 6 6 4 5 6 6 6 6 5 5 5 4 3 4 4 4 5 3 1 1 3 3 3 3 3 3 4 3 3 2 1 2 2 2 2 2 4 9 8 7
5 6 6 6 5 5 6 6 7 7 6 6 6 5 5 3 3 3 4 4 3 3 2 3 2 2 1 2 3 4 3 3 2 2 2 3 3 3 3 4 10 9 9
5 5 5 5 5 4 6 6 7 7 6 6 6 6 6 5 4 3 4 3 3 3 3 3 4 3 4 3 2 3 3 4 3 3 4 3 3 3 4 4 8 12 11
5 4 4 5 5 4 6 8 8 6 5 5 5 5 5 4 5 5 5 4 3 3 3 4 4 4 4 5 5 4 3 4 3 3 4 3 3 3 3 4 4 7 9
Wind_Direction
144 135 133 141 148 144 159 167 165 158 171 182 192 182 191 197 208 200 147 160 185 198 201 200 201 202 203 203 203 204 205 205 206 207 206 206 207 208 209 209 210 212 214
148 153 156 157 156 160 155 174 175 175 193 192 200 194 210 204 199 219 200 172 185 199 207 208 208 208 206 205 206 206 208 209 211 212 212 211 212 214 216 217 218 218 218
162 176 163 178 167 162 170 190 187 189 201 200 202 208 214 225 214 222 225 216 191 192 201 209 214 213 210 209 210 211 210 213 216 219 217 217 218 219 221 222 224 224 226
185 198 192 189 175 195 192 190 209 197 204 217 216 230 221 212 227 230 228 220 218 204 192 196 207 213 215 217 215 214 212 214 219 221 221 221 222 223 224 226 228 227 229
194 211 205 184 201 203 207 221 187 212 208 222 233 226 237 230 231 234 237 226 215 221 208 179 195 209 216 221 220 220 217 216 218 221 222 224 225 225 226 228 229 229 230
200 214 206 196 213 207 209 221 225 230 226 224 247 239 241 233 232 232 235 221 214 219 221 210 198 204 209 217 222 225 224 221 222 223 224 226 229 229 230 230 230 230 231
202 217 228 198 217 214 223 223 230 220 224 214 230 234 230 226 223 225 232 238 223 221 221 220 226 224 203 205 214 223 229 228 226 225 227 228 229 229 231 231 231 233 234
213 211 221 222 217 219 222 227 232 241 235 215 234 242 238 217 213 221 220 224 235 227 223 221 223 225 236 216 194 207 221 227 229 227 229 231 232 233 233 235 233 234 236
218 228 224 230 226 230 224 226 228 233 240 234 233 250 262 257 241 212 221 227 230 234 235 232 230 229 230 233 216 198 207 219 227 231 234 235 235 234 235 236 236 235 236
221 223 230 235 236 242 238 237 226 235 241 244 238 242 257 278 268 256 227 221 225 236 244 241 234 224 228 228 218 204 200 217 229 239 245 244 240 237 238 240 239 237 236
216 226 233 236 235 241 245 253 245 243 239 243 245 244 245 243 249 260 264 252 240 239 236 240 242 235 227 226 226 195 184 214 233 243 248 252 248 241 237 239 239 239 240
211 216 227 231 237 246 243 246 247 239 244 249 253 250 248 250 254 254 263 263 258 250 241 247 250 242 232 228 211 139 175 210 227 237 241 244 246 241 234 232 236 239 242
216 215 229 228 233 238 244 245 243 250 243 246 248 254 255 254 260 258 264 266 267 260 239 235 237 240 235 222 179 149 173 188 202 215 226 231 236 232 228 228 230 233 236
234 221 222 227 232 236 242 239 245 243 243 246 248 249 254 254 255 256 259 265 267 260 239 232 230 221 237 233 109 172 164 151 157 165 186 206 210 207 202 210 211 211 218
225 213 218 226 230 235 243 248 249 253 252 252 254 246 251 257 258 259 252 248 260 265 256 227 224 202 212 147 116 156 127 121 129 127 123 130 153 162 168 174 170 162 157
223 217 217 223 227 230 232 239 246 250 257 256 262 267 265 264 262 259 258 249 249 262 266 262 228 199 181 191 138 157 133 132 124 130 127 120 117 124 132 137 137 135 136
213 217 220 222 225 227 227 232 247 247 251 257 261 257 257 265 266 261 257 253 248 247 251 265 280 130 178 208 139 147 159 165 131 129 128 124 121 121 126 125 127 130 133
213 217 221 220 221 222 222 226 236 240 245 250 256 258 259 249 244 258 260 255 254 249 246 245 258 187 206 174 148 170 159 130 104 110 119 121 119 115 112 119 129 134 136
209 212 211 213 216 219 225 229 230 232 236 242 248 250 257 256 250 250 251 251 248 239 226 224 224 184 207 170 166 181 164 147 136 125 132 132 127 121 117 124 133 139 139
204 208 210 210 211 214 223 229 229 227 227 229 236 243 249 248 253 257 248 244 245 239 221 221 209 200 187 170 189 200 195 187 189 159 134 137 146 150 143 138 138 139 140
205 204 208 207 210 212 218 223 229 226 223 221 221 227 230 229 294 278 277 256 236 236 228 223 212 208 201 188 203 201 211 195 194 208 188 175 167 169 163 160 151 146 146
208 205 210 211 212 219 180 204 235 225 220 222 224 226 215 201 205 214 262 303 287 245 244 236 228 221 215 211 206 210 205 207 212 188 218 203 191 192 178 167 144 150 153
203 203 211 214 217 209 168 198 226 229 222 225 223 221 225 201 197 212 186 191 194 173 270 260 253 244 218 206 207 209 203 219 240 174 210 228 205 213 195 131 144 157 166
200 204 210 214 219 202 175 199 215 221 221 219 222 219 219 205 206 213 206 195 194 181 193 223 241 237 227 185 204 216 195 194 204 187 202 239 217 219 201 165 157 168 176
200 204 204 215 221 204 178 193 212 220 218 217 217 214 213 205 158 191 217 204 192 173 126 97 64 73 81 116 181 192 187 208 221 200 198 233 233 230 218 202 175 178 185
203 200 205 217 220 218 183 191 208 222 217 216 209 205 202 207 156 183 210 210 210 197 166 150 149 157 161 162 184 216 216 229 236 218 183 220 226 224 233 208 198 191 197
Height
1555 1556 1556 1557 1559 1560 1561 1562 1563 1564 1564 1565 1566 1567 1568 1568 1569 1569 1569 1568 1568 1569 1569 1570 1570 1571 1572 1573 1573 1574 1575 1576 1577 1578 1579 1580 1581 1581 1582 1583 1583 1584 1584
1555 1556 1557 1558 1559 1560 1561 1562 1563 1564 1565 1565 1566 1566 1567 1568 1568 1568 1569 1568 1567 1568 1568 1569 1569 1570 1570 1571 1572 1573 1574 1575 1575 1576 1577 1578 1579 1580 1580 1581 1581 1582 1583
1555 1556 1558 1558 1559 1560 1560 1561 1562 1563 1564 1565 1565 1566 1566 1566 1567 1567 1567 1567 1567 1567 1567 1567 1568 1568 1569 1569 1570 1571 1572 1572 1573 1574 1575 1576 1577 1577 1578 1579 1579 1580 1580
1555 1556 1557 1558 1559 1560 1560 1561 1562 1563 1564 1564 1565 1565 1565 1565 1565 1565 1566 1566 1566 1567 1566 1565 1566 1566 1567 1567 1568 1569 1569 1570 1571 1571 1572 1573 1574 1575 1576 1576 1577 1577 1578
1555 1556 1557 1557 1558 1559 1560 1561 1561 1562 1563 1563 1564 1564 1564 1564 1564 1564 1564 1564 1564 1564 1565 1564 1564 1564 1565 1565 1566 1566 1567 1567 1568 1569 1569 1570 1571 1572 1573 1573 1574 1574 1575
1554 1555 1556 1556 1557 1558 1559 1559 1559 1560 1561 1561 1562 1562 1562 1562 1562 1562 1562 1562 1562 1562 1562 1562 1562 1562 1562 1563 1563 1564 1564 1564 1565 1565 1566 1567 1568 1569 1569 1570 1571 1571 1572
1553 1554 1555 1555 1555 1556 1557 1558 1558 1559 1559 1560 1561 1561 1560 1560 1560 1560 1560 1560 1560 1560 1560 1560 1560 1560 1560 1560 1560 1561 1561 1561 1562 1562 1563 1564 1564 1565 1566 1566 1567 1567 1568
1552 1553 1553 1554 1554 1554 1555 1555 1556 1557 1558 1558 1559 1559 1559 1559 1558 1558 1557 1557 1557 1557 1557 1557 1557 1557 1558 1558 1558 1558 1558 1558 1559 1559 1560 1560 1561 1561 1562 1562 1563 1563 1564
1550 1551 1551 1552 1552 1553 1553 1553 1554 1554 1555 1556 1557 1557 1557 1556 1556 1556 1555 1555 1555 1555 1555 1555 1554 1554 1554 1555 1555 1554 1555 1555 1556 1556 1556 1556 1557 1557 1558 1558 1558 1559 1559
1548 1549 1549 1550 1550 1551 1551 1551 1552 1552 1553 1553 1554 1554 1555 1554 1555 1554 1554 1553 1552 1552 1552 1552 1552 1551 1551 1551 1551 1551 1552 1552 1552 1552 1553 1553 1553 1553 1553 1553 1554 1555 1555
1546 1547 1547 1548 1548 1548 1548 1549 1549 1549 1550 1550 1551 1551 1552 1552 1552 1552 1551 1551 1550 1550 1549 1549 1549 1549 1548 1548 1548 1548 1548 1549 1549 1549 1549 1549 1548 1548 1548 1549 1549 1550 1551
1545 1545 1545 1545 1546 1546 1546 1546 1546 1547 1547 1547 1548 1548 1549 1549 1549 1549 1548 1548 1547 1547 1547 1546 1546 1546 1546 1546 1546 1545 1545 1545 1545 1545 1545 1545 1544 1544 1544 1544 1545 1546 1547
1543 1543 1543 1543 1544 1544 1544 1544 1544 1544 1544 1544 1545 1545 1546 1546 1546 1546 1545 1545 1544 1544 1543 1543 1543 1543 1543 1543 1542 1541 1542 1542 1542 1542 1541 1541 1541 1541 1540 1541 1542 1542 1543
1541 1541 1541 1541 1541 1541 1542 1542 1542 1542 1542 1542 1542 1542 1542 1543 1543 1542 1542 1542 1541 1541 1541 1540 1540 1540 1540 1540 1539 1539 1539 1538 1539 1538 1538 1538 1538 1537 1537 1537 1538 1539 1539
1539 1538 1539 1539 1539 1539 1539 1539 1540 1539 1539 1539 1540 1540 1540 1540 1539 1539 1539 1539 1539 1538 1538 1538 1537 1537 1537 1537 1536 1536 1536 1535 1536 1536 1535 1535 1535 1535 1535 1535 1535 1535 1535
1536 1536 1536 1536 1537 1537 1537 1537 1537 1537 1537 1537 1536 1536 1536 1537 1536 1535 1535 1535 1535 1535 1535 1535 1534 1534 1534 1534 1534 1533 1533 1533 1533 1533 1533 1533 1532 1532 1532 1532 1532 1533 1533
1533 1533 1534 1534 1534 1534 1534 1534 1535 1535 1534 1534 1534 1534 1533 1533 1533 1532 1532 1532 1532 1532 1532 1532 1532 1531 1531 1531 1531 1532 1532 1531 1531 1530 1530 1530 1530 1530 1530 1530 1530 1530 1530
1530 1531 1531 1531 1532 1532 1532 1531 1532 1532 1532 1531 1531 1531 1531 1530 1530 1529 1529 1529 1529 1529 1529 1529 1529 1529 1529 1529 1529 1529 1529 1529 1529 1528 1528 1528 1528 1528 1528 1528 1528 1528 1528
1527 1528 1528 1528 1529 1529 1529 1529 1529 1529 1529 1528 1528 1528 1528 1528 1527 1527 1526 1527 1526 1527 1526 1526 1526 1526 1526 1526 1526 1527 1527 1527 1527 1526 1526 1526 1526 1526 1526 1526 1526 1525 1525
1524 1525 1525 1525 1525 1525 1526 1527 1526 1526 1526 1525 1525 1525 1525 1525 1524 1524 1524 1523 1524 1524 1524 1524 1524 1524 1524 1524 1524 1525 1525 1525 1525 1525 1524 1524 1524 1524 1524 1524 1523 1523 1523
1520 1521 1522 1522 1521 1521 1522 1523 1523 1523 1522 1522 1522 1522 1522 1522 1521 1522 1522 1522 1521 1522 1522 1522 1522 1522 1522 1522 1522 1522 1523 1523 1523 1523 1523 1523 1523 1522 1522 1521 1521 1521 1521
1517 1517 1518 1518 1518 1518 1518 1518 1519 1520 1519 1519 1519 1519 1519 1518 1518 1518 1518 1518 1518 1519 1519 1519 1519 1519 1519 1519 1520 1520 1520 1521 1521 1522 1521 1521 1521 1521 1520 1520 1518 1518 1518
1513 1514 1515 1515 1515 1514 1514 1515 1515 1515 1516 1516 1516 1516 1516 1516 1515 1516 1515 1515 1515 1515 1515 1516 1516 1516 1516 1516 1516 1517 1518 1518 1519 1519 1519 1519 1519 1519 1518 1517 1517 1516 1516
1510 1511 1511 1512 1511 1511 1511 1511 1511 1511 1513 1513 1513 1513 1513 1513 1513 1513 1513 1513 1513 1512 1512 1513 1513 1513 1513 1513 1514 1515 1515 1515 1516 1516 1516 1517 1517 1517 1516 1515 1514 1514 1513
1506 1507 1508 1508 1508 1508 1508 1508 1508 1508 1509 1509 1509 1509 1509 1509 1510 1510 1510 1510 1510 1510 1510 1510 1510 1510 1510 1510 1511 1512 1512 1513 1514 1513 1513 1514 1514 1514 1514 1513 1512 1511 1511
1503 1503 1504 1505 1504 1504 1504 1503 1504 1505 1505 1505 1505 1505 1505 1506 1506 1506 1507 1508 1508 1508 1508 1507 1507 1507 1507 1507 1508 1508 1509 1510 1511 1511 1510 1511 1511 1511 1511 1510 1509 1508 1508